When you browse on this site, cookies collect data to enhance your experience and personalize the content and advertising you see.
Visit our Privacy Policy to learn more. By continuing to use the site, you agree to this use of cookies and data.
  • In Portugal
  • List of Countries
  • For 7 days
  • Water Temperature
  • Satellite Maps
  • Weather Map
  • Weather Widgets
  • user-avatar
    Login

    Hourly Weather Port Said

    Today, 22 March, Friday

    Time Temperature Precipitation Wind Pressure Humidity
    00:00 +17°C° 0 mm 2 mps 763 mmHg 79%
    01:00 +17°C° 0 mm 2 mps 763 mmHg 80%
    02:00 +16°C° 0 mm 2 mps 763 mmHg 80%
    03:00 +16°C° 0 mm 2 mps 763 mmHg 82%
    04:00 +16°C° 0 mm 1 mps 763 mmHg 83%
    05:00 +15°C° 0 mm 1 mps 763 mmHg 84%
    06:00 +16°C° 0 mm 1 mps 763 mmHg 78%
    07:00 +18°C° 0 mm 1 mps 763 mmHg 72%
    08:00 +19°C° 0 mm 1 mps 763 mmHg 66%
    09:00 +21°C° 0 mm 1 mps 763 mmHg 57%
    10:00 +21°C° 0 mm 2 mps 763 mmHg 48%
    11:00 +24°C° 0 mm 2 mps 763 mmHg 39%
    12:00 +25°C° 0 mm 3 mps 762 mmHg 36%
    13:00 +25°C° 0 mm 4 mps 762 mmHg 33%
    14:00 +26°C° 0 mm 4 mps 762 mmHg 30%
    15:00 +25°C° 0 mm 4 mps 762 mmHg 33%
    16:00 +23°C° 0 mm 4 mps 761 mmHg 35%
    17:00 +23°C° 0 mm 4 mps 761 mmHg 38%
    18:00 +21°C° 0 mm 4 mps 762 mmHg 45%
    19:00 +20°C° 0 mm 3 mps 762 mmHg 53%
    20:00 +19°C° 0 mm 2 mps 762 mmHg 60%
    21:00 +19°C° 0 mm 2 mps 762 mmHg 61%
    22:00 +19°C° 0 mm 3 mps 762 mmHg 61%
    23:00 +19°C° 0 mm 4 mps 762 mmHg 62%

    Tomorrow, 23 March, Saturday

    Time Temperature Precipitation Wind Pressure Humidity
    00:00 +19°C° 0 mm 4 mps 762 mmHg 64%
    01:00 +18°C° 0 mm 4 mps 761 mmHg 65%
    02:00 +18°C° 0 mm 4 mps 761 mmHg 67%
    03:00 +18°C° 0 mm 3 mps 761 mmHg 68%
    04:00 +18°C° 0 mm 3 mps 761 mmHg 68%
    05:00 +18°C° 0 mm 2 mps 760 mmHg 69%
    06:00 +18°C° 0 mm 3 mps 760 mmHg 65%
    07:00 +19°C° 0 mm 4 mps 761 mmHg 60%
    08:00 +20°C° 0 mm 4 mps 761 mmHg 56%
    09:00 +21°C° 0 mm 4 mps 761 mmHg 50%
    10:00 +22°C° 0 mm 4 mps 761 mmHg 44%
    11:00 +23°C° 0 mm 4 mps 761 mmHg 39%
    12:00 +23°C° 0 mm 4 mps 760 mmHg 38%
    13:00 +23°C° 0 mm 4 mps 760 mmHg 37%
    14:00 +25°C° 0 mm 3 mps 760 mmHg 36%
    15:00 +23°C° 0 mm 4 mps 759 mmHg 39%
    16:00 +22°C° 0 mm 4 mps 759 mmHg 42%
    17:00 +22°C° 0 mm 5 mps 758 mmHg 45%
    18:00 +21°C° 0 mm 5 mps 759 mmHg 49%
    19:00 +20°C° 0 mm 5 mps 759 mmHg 53%
    20:00 +19°C° 0 mm 4 mps 759 mmHg 57%
    21:00 +19°C° 0 mm 5 mps 759 mmHg 58%
    22:00 +19°C° 0 mm 5 mps 758 mmHg 59%
    23:00 +19°C° 0 mm 5 mps 758 mmHg 60%

    Day after tomorrow, 24 March, Sunday

    Time Temperature Precipitation Wind Pressure Humidity
    00:00 +17°C° 0 mm 5 mps 757 mmHg 63%
    01:00 +17°C° 0 mm 5 mps 757 mmHg 66%
    02:00 +17°C° 0 mm 5 mps 756 mmHg 69%
    03:00 +17°C° 0 mm 4 mps 756 mmHg 71%
    04:00 +17°C° 0 mm 4 mps 756 mmHg 74%
    05:00 +16°C° 0 mm 3 mps 756 mmHg 77%
    06:00 +17°C° 0 mm 3 mps 756 mmHg 69%
    07:00 +19°C° 0 mm 3 mps 756 mmHg 62%
    08:00 +20°C° 0 mm 3 mps 757 mmHg 54%
    09:00 +21°C° 0 mm 3 mps 756 mmHg 46%
    10:00 +22°C° 0 mm 4 mps 756 mmHg 39%
    11:00 +23°C° 0 mm 4 mps 756 mmHg 31%
    12:00 +25°C° 0 mm 4 mps 756 mmHg 30%
    13:00 +25°C° 0 mm 5 mps 755 mmHg 28%
    14:00 +25°C° 0 mm 5 mps 755 mmHg 26%
    15:00 +23°C° 0 mm 6 mps 755 mmHg 32%
    16:00 +22°C° 0 mm 6 mps 754 mmHg 37%
    17:00 +21°C° 0 mm 6 mps 754 mmHg 42%
    18:00 +20°C° 0 mm 6 mps 755 mmHg 51%
    19:00 +19°C° 0 mm 5 mps 755 mmHg 59%
    20:00 +17°C° 0 mm 5 mps 756 mmHg 67%
    21:00 +17°C° 0 mm 5 mps 756 mmHg 69%
    22:00 +18°C° 0 mm 4 mps 756 mmHg 71%
    23:00 +17°C° 0 mm 4 mps 756 mmHg 73%

    25 March, Monday

    Time Temperature Precipitation Wind Pressure Humidity
    00:00 +17°C° 0 mm 4 mps 756 mmHg 76%
    01:00 +16°C° 0 mm 3 mps 756 mmHg 80%
    02:00 +16°C° 0 mm 3 mps 756 mmHg 83%
    03:00 +16°C° 0 mm 3 mps 755 mmHg 81%
    04:00 +14°C° 0 mm 3 mps 755 mmHg 79%
    05:00 +14°C° 0 mm 3 mps 755 mmHg 78%
    06:00 +16°C° 0 mm 3 mps 756 mmHg 67%
    07:00 +17°C° 0 mm 3 mps 756 mmHg 57%
    08:00 +18°C° 0 mm 4 mps 757 mmHg 47%
    09:00 +19°C° 0 mm 4 mps 757 mmHg 42%
    10:00 +20°C° 0 mm 4 mps 757 mmHg 37%
    11:00 +20°C° 0 mm 5 mps 757 mmHg 32%
    12:00 +21°C° 0 mm 5 mps 757 mmHg 32%
    13:00 +21°C° 0 mm 5 mps 757 mmHg 32%
    14:00 +21°C° 0 mm 6 mps 757 mmHg 31%
    15:00 +20°C° 0 mm 6 mps 757 mmHg 34%
    16:00 +20°C° 0 mm 6 mps 757 mmHg 36%
    17:00 +19°C° 0 mm 6 mps 757 mmHg 39%
    18:00 +17°C° 0 mm 6 mps 758 mmHg 43%
    19:00 +17°C° 0 mm 5 mps 758 mmHg 47%
    20:00 +16°C° 0 mm 5 mps 759 mmHg 51%
    21:00 +17°C° 0 mm 4 mps 759 mmHg 54%
    22:00 +15°C° 0 mm 4 mps 759 mmHg 57%
    23:00 +16°C° 0 mm 3 mps 759 mmHg 60%

    26 March, Tuesday

    Time Temperature Precipitation Wind Pressure Humidity
    00:00 +14°C° 0 mm 4 mps 759 mmHg 63%
    01:00 +13°C° 0 mm 4 mps 759 mmHg 65%
    02:00 +12°C° 0 mm 4 mps 759 mmHg 68%
    03:00 +12°C° 0 mm 4 mps 759 mmHg 70%
    04:00 +12°C° 0 mm 4 mps 759 mmHg 72%
    05:00 +11°C° 0 mm 4 mps 759 mmHg 74%
    06:00 +12°C° 0 mm 4 mps 759 mmHg 70%
    07:00 +14°C° 0 mm 5 mps 759 mmHg 65%
    08:00 +15°C° 0 mm 5 mps 759 mmHg 61%
    09:00 +16°C° 0 mm 5 mps 760 mmHg 55%
    10:00 +17°C° 0 mm 5 mps 760 mmHg 50%
    11:00 +19°C° 0 mm 5 mps 760 mmHg 45%
    12:00 +19°C° 0 mm 6 mps 759 mmHg 44%
    13:00 +20°C° 0 mm 6 mps 759 mmHg 44%
    14:00 +20°C° 0 mm 6 mps 759 mmHg 44%
    15:00 +20°C° 0 mm 6 mps 759 mmHg 45%
    16:00 +20°C° 0 mm 5 mps 759 mmHg 47%
    17:00 +19°C° 0 mm 5 mps 759 mmHg 48%
    18:00 +19°C° 0 mm 5 mps 759 mmHg 51%
    19:00 +17°C° 0 mm 5 mps 760 mmHg 54%
    20:00 +17°C° 0 mm 5 mps 760 mmHg 57%
    21:00 +17°C° 0 mm 4 mps 760 mmHg 61%
    22:00 +15°C° 0 mm 4 mps 760 mmHg 64%
    23:00 +14°C° 0 mm 4 mps 760 mmHg 68%

    27 March, Wednesday

    Time Temperature Precipitation Wind Pressure Humidity
    00:00 +14°C° 0 mm 4 mps 760 mmHg 70%
    01:00 +13°C° 0 mm 4 mps 760 mmHg 72%
    02:00 +13°C° 0 mm 4 mps 760 mmHg 74%
    03:00 +12°C° 0 mm 4 mps 760 mmHg 75%
    04:00 +12°C° 0 mm 4 mps 760 mmHg 76%
    05:00 +10°C° 0 mm 5 mps 761 mmHg 77%
    06:00 +13°C° 0 mm 5 mps 761 mmHg 75%
    07:00 +14°C° 0 mm 5 mps 761 mmHg 73%
    08:00 +15°C° 0 mm 6 mps 761 mmHg 70%
    09:00 +17°C° 0 mm 5 mps 761 mmHg 59%
    10:00 +20°C° 0 mm 5 mps 762 mmHg 47%
    11:00 +22°C° 0 mm 5 mps 762 mmHg 36%
    12:00 +23°C° 0 mm 5 mps 761 mmHg 34%
    13:00 +23°C° 0 mm 4 mps 761 mmHg 32%
    14:00 +25°C° 0 mm 4 mps 760 mmHg 29%
    15:00 +22°C° 0 mm 5 mps 760 mmHg 37%
    16:00 +21°C° 0 mm 5 mps 760 mmHg 44%
    17:00 +20°C° 0 mm 5 mps 760 mmHg 51%
    18:00 +19°C° 0 mm 5 mps 760 mmHg 58%
    19:00 +18°C° 0 mm 4 mps 761 mmHg 66%
    20:00 +17°C° 0 mm 3 mps 761 mmHg 73%
    21:00 +17°C° 0 mm 2 mps 761 mmHg 71%
    22:00 +17°C° 0 mm 2 mps 760 mmHg 70%
    23:00 +19°C° 0 mm 1 mps 760 mmHg 68%
    Show more